Asheville, NC

3:56 PM EDT on August 20, 2017 (GMT -0400)
Asheville Regional

Weather History for KAVL - May, 2012

Change the Weather History Date:

Wednesday, May 9, 2012

  Actual Average Record
Temperature  
Mean Temperature 57 °F 61 °F  
Max Temperature 63 °F 73 °F 90 °F (1889)
Min Temperature 51 °F 49 °F 34 °F (1984)
Degree Days  
Heating Degree Days 8 5  
Month to date heating degree days 8 48  
Since 1 July heating degree days 3272 4120  
Cooling Degree Days 0 1  
Month to date cooling degree days 44 8  
Year to date cooling degree days 58 16  
Growing Degree Days 8 (Base 50)    
Moisture  
Dew Point 58 °F    
Average Humidity 84    
Maximum Humidity 100    
Minimum Humidity 67    
Precipitation  
Precipitation 0.32 in 0.11 in 2.23 in (1995)
Month to date precipitation 1.05 1.02  
Year to date precipitation 13.87 15.61  
Snow  
Snow 0.00 in 0.00 in T in (1923)
Month to date snowfall 0.0 0.0  
Since 1 July snowfall T 9.9  
Snow Depth 0.00 in    
Sea Level Pressure  
Sea Level Pressure 29.85 in    
Wind  
Wind Speed 6 mph (NNW)    
Max Wind Speed 20 mph    
Max Gust Speed 26 mph    
Visibility 5 miles    
Events Fog , Rain    
T = Trace of Precipitation, MM = Missing Value Source: NWS Daily Summary

Daily Weather History Graph

Daily Weather History Graph

Search for Another Location

Airport or City:

Trip Planner

Search our weather history database for the weather conditions in past years. The results will help you decide how hot, cold, wet, or windy it might be!

Date:

Astronomy

May. 09, 2012 Rise Set
Actual Time 6:30 AM EDT 8:23 PM EDT
Civil Twilight 6:02 AM EDT 8:51 PM EDT
Nautical Twilight 5:28 AM EDT 9:25 PM EDT
Astronomical Twilight 4:52 AM EDT 10:01 PM EDT
Moon No Moon Rise 9:46 AM EDT (5/9)
Length of Visible Light 14h 48m
Length of Day
13h 53m
Waning Gibbous, 83% of the Moon is Illuminated
May 9
Waning Gibbous
May 12
Last Quarter
May 20
New
May 28
First Quarter
Jun 4
Full

Hourly Weather History & Observations

Time (EDT) Temp. Dew Point Humidity Pressure Visibility Wind Dir Wind Speed Gust Speed Precip Events Conditions
12:54 AM 62.1 °F 60.1 °F 93% 29.88 in 9.0 mi Calm Calm - N/A   Clear
1:25 AM 60.8 °F 59.0 °F 94% 29.94 in 7.0 mi Calm Calm - N/A   Scattered Clouds
1:36 AM 60.8 °F 59.0 °F 94% 29.93 in 1.8 mi Calm Calm - N/A   Mostly Cloudy
1:40 AM 60.8 °F 60.8 °F 100% 29.93 in 1.0 mi Calm Calm - N/A   Mostly Cloudy
1:52 AM 60.8 °F 60.8 °F 100% 29.93 in 2.0 mi Calm Calm - N/A   Overcast
1:54 AM 61.0 °F 60.1 °F 97% 29.86 in 2.0 mi Calm Calm - N/A   Overcast
1:57 AM 60.8 °F 60.8 °F 100% 29.93 in 1.2 mi Calm Calm - N/A   Overcast
2:09 AM 60.8 °F 60.8 °F 100% 29.92 in 2.0 mi Calm Calm - N/A   Overcast
2:26 AM 60.8 °F 60.8 °F 100% 29.92 in 1.5 mi Calm Calm - N/A   Overcast
2:28 AM 60.8 °F 60.8 °F 100% 29.92 in 0.8 mi South 3.5 mph - N/A   Overcast
2:38 AM 60.8 °F 60.8 °F 100% 29.92 in 0.2 mi Calm Calm - N/A Fog Fog
2:54 AM 60.1 °F 60.1 °F 100% 29.86 in 0.2 mi Calm Calm - N/A Fog Fog
3:03 AM 60.8 °F 60.8 °F 100% 29.91 in 0.2 mi Calm Calm - N/A Fog Fog
3:54 AM 60.1 °F 60.1 °F 100% 29.84 in 0.2 mi Calm Calm - N/A Fog Fog
4:54 AM 61.0 °F 60.1 °F 97% 29.83 in 0.2 mi Calm Calm - N/A Fog Fog
5:38 AM 60.8 °F 59.0 °F 94% 29.89 in 0.5 mi Calm Calm - N/A Fog Fog
5:54 AM 60.1 °F 59.0 °F 96% 29.82 in 0.5 mi Calm Calm - N/A Fog Fog
6:22 AM 60.8 °F 60.8 °F 100% 29.89 in 0.8 mi Calm Calm - N/A   Mist
6:24 AM 60.8 °F 60.8 °F 100% 29.89 in 1.0 mi Calm Calm - N/A   Mist
6:37 AM 60.8 °F 60.8 °F 100% 29.89 in 0.5 mi Calm Calm - N/A Fog Fog
6:54 AM 60.8 °F 59.0 °F 94% 29.89 in 0.2 mi Calm Calm - N/A Fog Fog
7:54 AM 61.0 °F 59.0 °F 93% 29.83 in 1.0 mi WSW 3.5 mph - N/A   Mist
7:57 AM 60.8 °F 59.0 °F 94% 29.88 in 2.0 mi Calm Calm - N/A   Overcast
8:05 AM 60.8 °F 59.0 °F 94% 29.88 in 6.0 mi Calm Calm - N/A   Overcast
8:54 AM 62.1 °F 60.1 °F 93% 29.81 in 4.0 mi Calm Calm - N/A   Overcast
9:54 AM 63.0 °F 60.1 °F 90% 29.81 in 6.0 mi Calm Calm - N/A   Overcast
10:54 AM 63.0 °F 61.0 °F 93% 29.82 in 2.0 mi NNW 5.8 mph - 0.00 in Rain Rain
10:58 AM 62.6 °F 60.8 °F 94% 29.87 in 1.2 mi North 8.1 mph - 0.04 in Rain Heavy Rain
11:05 AM 62.6 °F 60.8 °F 94% 29.87 in 0.8 mi NNW 8.1 mph - 0.19 in Rain Heavy Rain
11:09 AM 62.6 °F 60.8 °F 94% 29.88 in 1.0 mi NNW 5.8 mph - 0.24 in Rain Heavy Rain
11:14 AM 62.6 °F 60.8 °F 94% 29.88 in 2.0 mi NNW 12.7 mph - 0.26 in Rain Heavy Rain
11:26 AM 62.6 °F 60.8 °F 94% 29.88 in 6.0 mi North 15.0 mph 20.7 mph 0.29 in Rain Light Rain
11:33 AM 60.8 °F 59.0 °F 94% 29.88 in 10.0 mi North 16.1 mph 20.7 mph 0.29 in Rain Light Rain
11:40 AM 60.8 °F 57.2 °F 88% 29.88 in 10.0 mi North 10.4 mph 20.7 mph 0.29 in Rain Light Rain
11:54 AM 61.0 °F 57.0 °F 87% 29.82 in 10.0 mi North 16.1 mph 21.9 mph 0.29 in Rain Light Rain
12:05 PM 60.8 °F 57.2 °F 88% 29.88 in 4.0 mi North 15.0 mph 23.0 mph 0.00 in Rain Light Rain
12:54 PM 61.0 °F 57.9 °F 90% 29.82 in 10.0 mi NNW 19.6 mph 26.5 mph 0.01 in Rain Light Rain
1:07 PM 60.8 °F 57.2 °F 88% 29.87 in 4.0 mi North 13.8 mph 23.0 mph 0.00 in Rain Light Rain
1:54 PM 61.0 °F 57.0 °F 87% 29.80 in 4.0 mi NNW 15.0 mph - 0.01 in Rain Light Rain
2:01 PM 60.8 °F 57.2 °F 88% 29.84 in 7.0 mi NNW 18.4 mph 24.2 mph 0.00 in Rain Light Rain
2:54 PM 62.1 °F 57.0 °F 84% 29.78 in 8.0 mi NNW 13.8 mph - 0.01 in   Mostly Cloudy
3:54 PM 62.1 °F 55.0 °F 78% 29.76 in 8.0 mi North 12.7 mph 18.4 mph N/A   Overcast
4:06 PM 60.8 °F 55.4 °F 82% 29.81 in 10.0 mi North 13.8 mph 20.7 mph N/A   Overcast
4:41 PM 60.8 °F 50.0 °F 68% 29.82 in 10.0 mi NNW 15.0 mph 25.3 mph N/A   Overcast
4:54 PM 60.1 °F 51.1 °F 72% 29.76 in 10.0 mi NNW 15.0 mph - N/A   Overcast
5:54 PM 60.1 °F 52.0 °F 75% 29.76 in 10.0 mi North 8.1 mph - 0.00 in   Clear
6:54 PM 61.0 °F 50.0 °F 67% 29.76 in 10.0 mi North 10.4 mph - N/A   Clear
7:54 PM 59.0 °F 48.9 °F 69% 29.77 in 10.0 mi NNW 10.4 mph - N/A   Clear
8:54 PM 57.0 °F 48.9 °F 74% 29.78 in 10.0 mi North 4.6 mph - N/A   Partly Cloudy
9:54 PM 54.0 °F 48.9 °F 83% 29.81 in 10.0 mi NW 4.6 mph - N/A   Clear
10:54 PM 54.0 °F 50.0 °F 86% 29.82 in 10.0 mi NNW 4.6 mph - N/A   Partly Cloudy
11:54 PM 52.0 °F 48.9 °F 89% 29.83 in 10.0 mi Calm Calm - N/A   Clear